Location: Nelson
(41.2830°S, 173.2830°E)
Time: 10:12:07
(UTC+12:00)

Cosmos 1151 Rocket - Pass Details

Date: 24 January 2019
Orbit: 593 x 615 km, 82.5° (Epoch: 18 April)

Event Time Altitude Azimuth Distance (km) Brightness Sun altitude
Rises 21:49:06 0° 359° (N) 2,830 6.1 -9.5°
Reaches altitude 10° 21:51:17 10° 0° (N) 1,939 5.3 -9.8°
Maximum altitude 21:55:33 73° 84° (E) 639 3.0 -10.4°
Drops below altitude 10° 21:59:55 10° 168° (SSE) 1,979 6.0 -11.1°
Sets 22:02:10 0° 170° (S) 2,895 6.9 -11.4°
